TimeCST,TemperatureF,Dew PointF,Humidity,Sea Level PressureIn,VisibilityMPH,Wind Direction,Wind SpeedMPH,Gust SpeedMPH,PrecipitationIn,Events,Conditions,WindDirDegrees,DateUTC
12:53 AM,24.1,14.0,65,30.53,10.0,South,4.6,-,N/A,,Clear,190,2014-01-08 06:53:00
1:53 AM,21.0,14.0,74,30.51,10.0,SSE,4.6,-,N/A,,Clear,150,2014-01-08 07:53:00
2:53 AM,19.0,15.1,85,30.51,10.0,ESE,3.5,-,N/A,,Clear,120,2014-01-08 08:53:00
3:53 AM,18.0,14.0,84,30.51,10.0,SE,3.5,-,N/A,,Clear,140,2014-01-08 09:53:00
4:53 AM,23.0,17.1,78,30.48,10.0,Calm,Calm,-,N/A,,Clear,0,2014-01-08 10:53:00
5:53 AM,18.0,12.9,81,30.48,10.0,ESE,3.5,-,N/A,,Clear,120,2014-01-08 11:53:00
6:53 AM,21.0,15.1,78,30.50,10.0,Calm,Calm,-,N/A,,Clear,0,2014-01-08 12:53:00
7:53 AM,25.0,17.1,72,30.52,10.0,ESE,6.9,-,N/A,,Clear,120,2014-01-08 13:53:00
8:53 AM,30.0,18.0,61,30.53,10.0,SE,6.9,-,N/A,,Clear,130,2014-01-08 14:53:00
9:53 AM,35.1,15.1,44,30.53,10.0,ESE,9.2,-,N/A,,Mostly Cloudy,120,2014-01-08 15:53:00
10:53 AM,39.0,12.9,34,30.50,10.0,SE,11.5,-,N/A,,Overcast,130,2014-01-08 16:53:00
11:53 AM,42.1,12.0,29,30.46,10.0,ESE,9.2,-,N/A,,Overcast,110,2014-01-08 17:53:00
12:53 PM,45.0,14.0,29,30.40,10.0,SE,10.4,-,N/A,,Overcast,130,2014-01-08 18:53:00
1:53 PM,46.9,10.0,22,30.39,10.0,ESE,8.1,-,N/A,,Overcast,110,2014-01-08 19:53:00
2:53 PM,46.9,10.0,22,30.38,10.0,ESE,8.1,-,N/A,,Overcast,120,2014-01-08 20:53:00
3:53 PM,48.0,12.9,24,30.37,10.0,ESE,6.9,-,N/A,,Overcast,120,2014-01-08 21:53:00
4:53 PM,45.0,21.9,40,30.37,10.0,ESE,6.9,-,N/A,,Overcast,110,2014-01-08 22:53:00
5:53 PM,39.9,21.9,49,30.37,10.0,ESE,6.9,-,N/A,,Clear,120,2014-01-08 23:53:00
6:53 PM,41.0,19.0,41,30.36,10.0,SE,6.9,-,N/A,,Mostly Cloudy,130,2014-01-09 00:53:00
7:53 PM,41.0,19.9,43,30.37,10.0,SE,6.9,-,N/A,,Clear,130,2014-01-09 01:53:00
8:53 PM,41.0,21.0,45,30.38,10.0,SE,4.6,-,N/A,,Overcast,130,2014-01-09 02:53:00
9:53 PM,42.1,21.9,45,30.38,10.0,SE,5.8,-,N/A,,Overcast,130,2014-01-09 03:53:00
10:53 PM,42.1,23.0,47,30.38,10.0,SE,8.1,-,N/A,,Overcast,140,2014-01-09 04:53:00